Regional Weather Roundup
Issued by NWS

Home | Current Version | Previous Version | Text Only | Print | Product List | Glossary Off
Versions: 1 2 3 4 5 6 7 8 9 10 11 12 13 14 15 16 17 18 19 20 21 22 23 24 25 26 27 28 29 30 31 32 33 34 35 36 37 38 39 40 41 42 43 44 45 46 47 48 49 50

000
ASUS43 KDTX 230610
RWRMI
MICHIGAN HOURLY REGIONAL WEATHER ROUNDUP
NATIONAL WEATHER SERVICE DETROIT/PONTIAC MI
ISSUED BY NATIONAL WEATHER SERVICE GRAND RAPIDS MI
100 AM EST MON JAN 23 2017

NOTE: "FAIR" INDICATES FEW OR NO CLOUDS BELOW 12,000 FEET WITH NO
SIGNIFICANT WEATHER AND/OR OBSTRUCTION TO VISIBILITY.

MIZ047>049-052>055-059>063-066>070-074>076-081>083-230700-
SOUTHEAST LOWER MICHIGAN

CITY           SKY/WX    TMP DP  RH WIND       PRES   REMARKS
ADRIAN         FOG       44  44 100 NE7       29.61S VSB 1/2
6HR MIN TEMP:  44; 6HR MAX TEMP:  47;

ALMA           FOG       38  38 100 CALM      29.67F VSB 3/4
ANN ARBOR      FOG       46  46 100 NE7       29.61F VSB 3/4
BAD AXE        FOG       38  38 100 CALM      29.67F VSB 1/2
6HR MIN TEMP:  38; 6HR MAX TEMP:  42;

DETROIT CITY   FOG       42  42 100 NE7       29.63F VSB 1/4
6HR MIN TEMP:  42; 6HR MAX TEMP:  46;

DETROIT        FOG       44  44 100 E6        29.63S VSB 1/2
6HR MIN TEMP:  44; 6HR MAX TEMP:  47;

FLINT          FOG       40  39  97 N3        29.64F VSB 1/2
6HR MIN TEMP:  40; 6HR MAX TEMP:  41;

GROSSE ILE     FOG       42  41  99 NE8       29.61F VSB 1
6HR MIN TEMP:  41; 6HR MAX TEMP:  45;

HILLSDALE      FOG       45  43  93 N5        29.59F VSB 3/4
HOWELL         FOG       40  39  97 CALM      29.62F VSB 1/2

CITY           SKY/WX    TMP DP  RH WIND       PRES   REMARKS
JACKSON        FOG       42  41  96 N6        29.61F VSB 1/4
6HR MIN TEMP:  42; 6HR MAX TEMP:  47;

LANSING        FOG       41  38  89 N3        29.65F VSB 1
6HR MIN TEMP:  40; 6HR MAX TEMP:  41;

MASON          FOG       40  40 100 CALM      29.63F VSB 3/4
MONROE         FOG       42  42 100 NE5       29.60F VSB 1/2
6HR MIN TEMP:  41; 6HR MAX TEMP:  47;

MT. CLEMENS    CLOUDY    41  41 100 NE6       29.62F FOG
6HR MIN TEMP:  40; 6HR MAX TEMP:  46;

PONTIAC        FOG       43  42  97 NE5       29.61F VSB 1/4
6HR MIN TEMP:  43; 6HR MAX TEMP:  45;

PORT HOPE        N/A     37  37 100 SE9       29.67F WCI  30
6HR MIN TEMP:  36; 6HR MAX TEMP:  39;

PORT HURON     FOG       39  39 100 CALM      29.65F VSB 1/4
TRI CITIES     FOG       37  37 100 NE9       29.67F VSB 1/4 WCI  30
6HR MIN TEMP:  37; 6HR MAX TEMP:  39;

YPSILANTI      CLOUDY    47  47 100 NE8       29.62F FOG
6HR MIN TEMP:  47; 6HR MAX TEMP:  48;

$$
MIZ043>046-050>051-056>058-064>065-071>073-077>080-230700-
SOUTHWEST LOWER MICHIGAN

CITY           SKY/WX    TMP DP  RH WIND       PRES   REMARKS
BATTLE CREEK   FOG       41  41 100 N6        29.62F VSB 3/4
6HR MIN TEMP:  41; 6HR MAX TEMP:  42;

BENTON HARBOR  CLOUDY    40  38  93 CALM      29.65F FOG
6HR MIN TEMP:  40; 6HR MAX TEMP:  42;

BIG RAPIDS     CLOUDY    35  34  98 CALM      29.67F FOG
6HR MIN TEMP:  33; 6HR MAX TEMP:  39;

COLDWATER      FOG       43  43 100 N6        29.61F VSB 3/4
6HR MIN TEMP:  43; 6HR MAX TEMP:  45;

HOLLAND        CLOUDY    41  39  93 CALM      29.67F
6HR MIN TEMP:  38; 6HR MAX TEMP:  42;

GRAND RAPIDS   FOG       41  39  93 N5        29.66S VSB 1
6HR MIN TEMP:  41; 6HR MAX TEMP:  42;

KALAMAZOO      FOG       42  40  92 N6        29.63F VSB 1/2
6HR MIN TEMP:  42; 6HR MAX TEMP:  42;

MARSHALL       CLOUDY    41  40  97 N3        29.62F FOG
6HR MIN TEMP:  41; 6HR MAX TEMP:  42;

MOUNT PLEASANT FOG       37  37  98 N3        29.67F VSB 1/4
6HR MIN TEMP:  36; 6HR MAX TEMP:  39;

MUSKEGON       CLOUDY    41  39  93 N7        29.69F
6HR MIN TEMP:  39; 6HR MAX TEMP:  42;

STURGIS        FOG       42  42 100 N7        29.60F VSB 1/2
6HR MIN TEMP:  42; 6HR MAX TEMP:  42;

$$
MIZ016>042-230700-
NORTHERN LOWER MICHIGAN

CITY           SKY/WX    TMP DP  RH WIND       PRES   REMARKS
ALPENA         FOG       37  36  96 CALM      29.71S VSB 1/4
6HR MIN TEMP:  36; 6HR MAX TEMP:  39;

BEAVER ISLAND  CLOUDY    35  35 100 E5        29.70F FOG     WCI  31
6HR MIN TEMP:  35; 6HR MAX TEMP:  35;

BELLAIRE       CLOUDY    34  34  99 CALM      29.70S FOG
6HR MIN TEMP:  33; 6HR MAX TEMP:  36;

CADILLAC       FOG       38  36  93 CALM      29.68S VSB 1/2
CHARLEVOIX     FOG       36  36 100 CALM      29.72S VSB 1/2
GAYLORD        FOG       38  35  89 CALM      29.67F VSB 1/4
6HR MIN TEMP:  37; 6HR MAX TEMP:  42;

HOUGHTON LAKE  FOG       35  35 100 W3        29.68F VSB 1/2
6HR MIN TEMP:  35; 6HR MAX TEMP:  39;

MANISTEE       FOG       37  37 100 CALM      29.71S VSB 1/4
OSCODA         FOG       38  37  97 CALM      29.68F VSB 1/2
6HR MIN TEMP:  37; 6HR MAX TEMP:  39;

PELLSTON       FOG       36  34  92 CALM      29.70F VSB 3/4
6HR MIN TEMP:  34; 6HR MAX TEMP:  37;

TRAVERSE CITY  FOG       38  37  97 CALM      29.69S VSB 1/4
6HR MIN TEMP:  37; 6HR MAX TEMP:  40;

LUDINGTON      FOG       36  36 100 CALM      29.71S VSB<1/4
6HR MIN TEMP:  32; 6HR MAX TEMP:  36;

$$
MIZ007>008-015-230700-
EASTERN UPPER MICHIGAN

CITY           SKY/WX    TMP DP  RH WIND       PRES   REMARKS
KINROSS        MIX PCPN  36  36 100 E13       29.72F FOG     WCI  27
6HR MIN TEMP:  35; 6HR MAX TEMP:  36; 6HR PCP: TRACE;

MACKINAC ISLAN FOG       35  35 100 E8        29.70F VSB 1/4 WCI  28
6HR MIN TEMP:  34; 6HR MAX TEMP:  36;

NEWBERRY       FOG       34  33  96 CALM      29.71R VSB 3/4
6HR MIN TEMP:  34; 6HR MAX TEMP:  36;

S. S. MARIE    FOG       38  36  92 E3        29.72S VSB 3/4
6HR MIN TEMP:  37; 6HR MAX TEMP:  38;

$$
MIZ004>006-011>014-085-230700-
CENTRAL UPPER MICHIGAN

CITY           SKY/WX    TMP DP  RH WIND       PRES   REMARKS
MANISTIQUE     CLOUDY    35  34  97 E5        29.71R WCI  31
6HR MIN TEMP:  34; 6HR MAX TEMP:  35;

ESCANABA       FOG       35  35 100 CALM      29.72R VSB 1/2
6HR MIN TEMP:  34; 6HR MAX TEMP:  35;

SAWYER-GWINN   FOG       33  33  99 CALM      29.70R VSB 1/4
6HR MIN TEMP:  33; 6HR MAX TEMP:  35;

$$
MIZ001>003-009>011-084-230700-
WESTERN UPPER MICHIGAN

CITY           SKY/WX    TMP DP  RH WIND       PRES   REMARKS
IRON MOUNTAIN  CLOUDY    36  33  89 CALM      29.70R
6HR MIN TEMP:  34; 6HR MAX TEMP:  37;

HOUGHTON       CLOUDY    34  32  92 NW7       29.68S FOG     WCI  28
6HR MIN TEMP:  34; 6HR MAX TEMP:  35; 6HR PCP:  0.04;

COPPER HARBOR    N/A     35  35 100 W3        29.68R
6HR MIN TEMP:  34; 6HR MAX TEMP:  36;

IRONWOOD       CLOUDY    34  34 100 W5        29.72S FOG     WCI  30
6HR MIN TEMP:  33; 6HR MAX TEMP:  34; 6HR PCP: TRACE;

$$

ABBREVIATIONS USED IN REMARKS
   TC - TEMPERATURE IN CELSIUS
  WCI - WIND CHILL INDEX
   HX - HEAT INDEX
  VSB - VISIBILITY





USA.gov is the U.S. government's official web portal to all federal, state and local government web resources and services.